Change the Weather History Date:

Monday, January 6, 2014

  Actual Average Record
Temperature  
Mean Temperature 38 °F -  
Max Temperature 43 °F 42 °F 59 °F (2003)
Min Temperature 32 °F 29 °F 10 °F (1982)
Degree Days  
Heating Degree Days 28    
Moisture  
Dew Point 30 °F    
Average Humidity 75    
Maximum Humidity 92    
Minimum Humidity 49    
Precipitation  
Precipitation 0.00 in - - ()
Sea Level Pressure  
Sea Level Pressure 30.21 in    
Wind  
Wind Speed 4 mph (SE)    
Max Wind Speed 15 mph    
Max Gust Speed 22 mph    
Visibility 10 miles    
Events      
Averages and records for this station are not official NWS values.
T = Trace of Precipitation, MM = Missing Value Source: NWS Daily Summary

Daily Weather History Graph

Daily Weather History Graph

Search for Another Location

Airport or City:

Trip Planner

Search our weather history database for the weather conditions in past years. The results will help you decide how hot, cold, wet, or windy it might be!

Date:

Astronomy

Jan. 06, 2014 Rise Set
Actual Time 7:57 AM PST 4:32 PM PST
Civil Twilight 7:22 AM PST 5:08 PM PST
Nautical Twilight 6:42 AM PST 5:47 PM PST
Astronomical Twilight 6:05 AM PST 6:24 PM PST
Moon 10:47 AM PST (1/6) 11:43 PM PST (1/6)
Length of Visible Light 9h 46m
Length of Day
8h 34m
Waxing Crescent, 36% of the Moon is Illuminated
Jan 6
Waxing Crescent
Jan 7
First Quarter
Jan 15
Full
Jan 23
Last Quarter
Jan 30
New

Hourly Weather History & Observations

Time (PST) Temp. Windchill Dew Point Humidity Pressure Visibility Wind Dir Wind Speed Gust Speed Precip Events Conditions
12:53 AM 35.1 °F 30.1 °F 30.9 °F 85% 30.32 in 10.0 mi NNE 5.8 mph - N/A   Clear
1:53 AM 34.0 °F 29.8 °F 30.9 °F 89% 30.32 in 10.0 mi North 4.6 mph - N/A   Clear
2:53 AM 34.0 °F 29.8 °F 30.9 °F 89% 30.30 in 10.0 mi North 4.6 mph - N/A   Clear
3:53 AM 33.1 °F - 30.9 °F 92% 30.27 in 10.0 mi Calm Calm - N/A   Clear
4:53 AM 32.0 °F - 30.0 °F 92% 30.27 in 8.0 mi Calm Calm - N/A   Clear
5:53 AM 34.0 °F 31.0 °F 30.9 °F 89% 30.24 in 10.0 mi NE 3.5 mph - N/A   Clear
6:53 AM 32.0 °F - 30.0 °F 92% 30.23 in 10.0 mi Calm Calm - N/A   Clear
7:53 AM 32.0 °F - 28.9 °F 88% 30.23 in 10.0 mi Calm Calm - N/A   Clear
8:53 AM 33.1 °F - 30.0 °F 89% 30.24 in 10.0 mi Calm Calm - N/A   Clear
9:53 AM 35.1 °F - 32.0 °F 89% 30.24 in 9.0 mi Calm Calm - N/A   Clear
10:53 AM 39.9 °F - 30.0 °F 68% 30.22 in 10.0 mi Calm Calm - N/A   Clear
11:53 AM 39.9 °F 37.8 °F 33.1 °F 77% 30.20 in 10.0 mi SSW 3.5 mph - N/A   Clear
12:53 PM 41.0 °F 37.1 °F 30.0 °F 65% 30.19 in 10.0 mi South 5.8 mph - N/A   Clear
1:53 PM 39.9 °F 36.7 °F 30.9 °F 70% 30.17 in 10.0 mi South 4.6 mph - N/A   Clear
2:53 PM 39.0 °F - 32.0 °F 76% 30.16 in 10.0 mi Calm Calm - N/A   Clear
3:53 PM 37.9 °F - 33.1 °F 83% 30.16 in 10.0 mi Calm Calm - N/A   Clear
4:53 PM 41.0 °F 35.2 °F 30.0 °F 65% 30.15 in 10.0 mi SSE 9.2 mph - N/A   Clear
5:53 PM 39.0 °F 31.4 °F 30.9 °F 73% 30.15 in 10.0 mi SSE 12.7 mph 21.9 mph N/A   Clear
6:53 PM 42.1 °F 36.1 °F 27.0 °F 55% 30.15 in 10.0 mi SSE 10.4 mph - N/A   Mostly Cloudy
7:53 PM 43.0 °F 39.5 °F 26.1 °F 51% 30.15 in 10.0 mi SSE 5.8 mph - 0.00 in   Scattered Clouds
8:53 PM 42.1 °F 39.2 °F 26.1 °F 53% 30.15 in 10.0 mi ESE 4.6 mph - N/A   Overcast
9:53 PM 43.0 °F 38.8 °F 25.0 °F 49% 30.15 in 10.0 mi SE 6.9 mph - N/A   Overcast
10:53 PM 43.0 °F 35.7 °F 27.0 °F 53% 30.14 in 10.0 mi SSE 15.0 mph - N/A   Overcast
11:53 PM 43.0 °F 37.7 °F 28.9 °F 58% 30.14 in 10.0 mi South 9.2 mph - N/A   Overcast